Location: Central Falls
(41.8900°N, 71.3929°W)
Time: 05:56:43
(UTC+00:00)

Vanguard 3 - Pass Details

Date: 09 December 2023
Orbit: 508 x 3239 km, 33.4° (Epoch: 01 March)

Event Time Altitude Azimuth Distance (km) Brightness Sun altitude
Rises 01:44:24 0° 242° (WSW) 6,829 12.3 -49.3°
Reaches altitude 10° 01:49:38 10° 237° (WSW) 5,504 11.6 -50.2°
Enters shadow 01:58:22 33° 219° (SW) 3,288 10.1 -51.8°
